Wetbulb
59.29 59.43 59.34 59.43 59.52 59.65 59.78 59.97 60.16 60.51 60.77 60.70 60.63 60.56 60.89 61.18 60.51 59.20 52.07 59.02 62.33 72.57 73.17 59.15 65.16 63.45 63.62 62.69 66.48 66.80 55.99 55.60 56.91 57.85 58.05 63.30 61.89 66.20 67.63 66.25 67.40 67.76 66.81 67.62 69.58
58.90 59.00 58.95 59.06 59.13 59.28 59.39 59.47 59.79 59.94 59.98 59.83 59.99 60.04 60.63 61.18 57.67 54.36 63.22 70.75 73.71 74.77 59.61 57.14 57.75 62.11 58.97 59.99 61.79 61.53 53.40 57.13 62.50 61.71 60.53 62.91 64.49 63.57 62.76 63.95 64.97 65.90 68.21 69.37 69.58
58.31 58.26 58.25 58.47 58.71 58.76 58.86 59.16 59.24 59.21 59.24 58.94 59.17 59.72 60.35 60.34 54.77 53.47 69.25 69.51 75.01 73.26 58.97 56.71 56.88 56.87 56.58 56.27 59.17 62.08 58.46 62.10 63.48 63.76 64.50 63.28 64.68 65.46 62.28 59.53 64.21 64.25 66.47 68.28 68.04
57.81 57.80 57.77 57.90 58.19 58.27 58.51 58.59 58.56 58.55 58.49 58.54 58.99 59.81 60.50 57.50 49.77 60.46 73.51 72.19 74.56 63.97 57.30 56.73 57.48 56.61 54.80 53.41 58.14 57.86 62.23 62.77 65.45 65.69 64.30 63.15 65.96 63.35 63.83 63.43 66.76 68.01 68.14 68.10 67.18
57.41 57.44 57.54 57.60 57.78 57.93 58.09 58.06 57.91 57.57 57.74 58.24 59.46 60.42 56.71 50.50 51.76 60.05 73.94 73.71 66.13 58.09 55.11 55.40 54.86 57.29 54.10 55.99 56.13 59.37 62.80 65.94 66.55 65.76 66.11 66.26 64.47 63.72 64.45 65.55 69.00 68.89 68.53 67.34 67.00
57.01 57.15 57.23 57.31 57.49 57.60 57.82 57.54 57.23 57.05 57.33 58.31 59.81 60.39 53.40 44.93 57.33 65.74 63.90 60.66 57.50 54.81 53.55 55.35 55.92 58.58 55.64 54.25 52.71 56.18 64.00 65.33 66.24 64.04 65.51 63.47 63.02 63.89 65.50 66.56 66.37 67.42 66.65 66.92 66.86
56.72 56.76 56.80 56.84 57.04 57.27 57.28 56.71 56.63 56.69 57.33 58.34 59.66 59.78 53.56 51.88 60.40 64.00 61.19 56.81 55.37 54.48 53.07 56.01 57.43 55.75 54.98 51.97 55.92 55.82 57.93 61.81 62.49 62.67 61.72 63.08 58.06 59.63 65.39 66.27 65.69 66.15 66.25 66.62 66.41
56.65 56.61 56.61 56.47 56.57 56.64 56.40 56.31 56.00 56.91 57.79 58.89 61.47 55.98 49.28 58.54 59.21 58.68 59.85 55.42 55.25 53.98 54.78 55.41 56.98 55.44 50.88 53.49 53.31 51.65 54.46 53.87 61.40 62.73 63.09 59.33 52.44 61.21 64.51 64.37 63.99 65.28 65.71 65.81 66.10
56.65 56.44 56.16 56.13 56.06 56.09 55.38 55.36 56.31 57.74 59.35 61.08 53.75 52.10 50.19 63.26 57.77 58.08 59.47 57.47 52.94 52.67 54.02 59.27 55.42 50.58 51.77 47.52 46.03 48.89 44.94 50.76 56.52 62.21 62.33 59.81 55.49 61.79 63.59 63.65 61.93 63.84 64.56 64.96 65.58
56.43 56.26 56.12 55.87 55.67 54.63 54.17 54.73 56.01 57.04 58.94 60.18 59.32 49.71 54.26 55.56 54.53 57.40 56.48 60.30 54.48 52.41 53.38 53.19 49.99 45.61 45.14 43.45 40.07 44.29 47.17 51.73 53.56 59.72 59.37 58.59 57.93 60.22 63.02 63.40 62.61 63.55 64.51 64.71 64.75
56.16 55.92 55.73 55.54 55.00 53.76 51.58 51.16 53.64 52.48 53.81 50.13 50.53 54.03 56.23 58.99 55.70 54.20 56.44 57.68 54.83 51.05 46.23 48.78 45.77 42.69 45.38 45.95 48.05 49.20 48.46 48.76 56.92 61.47 58.75 56.33 56.87 57.26 61.86 62.57 62.01 61.04 64.20 64.47 64.69
55.78 55.47 55.32 54.94 54.29 53.39 50.54 48.59 55.61 55.81 49.18 56.74 56.63 56.04 58.09 56.65 52.52 51.17 54.83 53.99 51.27 46.57 46.47 44.37 43.07 48.31 49.61 49.13 48.03 47.95 46.98 47.51 52.09 58.68 56.54 53.31 52.03 56.17 61.41 62.06 62.73 61.90 63.16 64.48 64.89
55.55 55.20 54.63 54.14 53.12 49.71 48.85 51.65 55.42 56.07 48.55 52.98 56.76 56.38 56.69 55.68 53.82 49.15 55.42 53.56 49.18 46.67 44.58 42.11 46.18 49.61 49.39 48.02 46.86 46.81 43.72 47.46 49.30 53.04 53.88 51.10 47.79 50.57 56.34 61.63 63.13 63.74 63.08 63.76 64.86
55.13 54.84 53.96 52.57 49.55 50.96 51.50 55.09 54.79 55.55 43.59 49.09 51.32 57.20 57.65 57.11 51.26 55.86 57.87 54.16 50.02 47.55 47.32 43.66 48.65 47.89 47.13 46.86 46.71 41.65 48.93 49.27 51.49 47.78 42.32 49.67 41.73 45.53 49.14 57.25 61.18 62.36 62.27 62.56 63.95
54.66 54.08 52.90 51.48 46.51 49.94 56.86 53.33 54.29 53.35 38.36 54.32 53.40 60.16 56.35 51.97 51.50 52.80 56.81 52.23 49.51 48.61 46.18 45.36 46.72 46.84 45.57 46.90 47.67 46.50 48.41 48.20 49.39 45.23 41.79 44.67 40.98 44.86 51.36 52.75 58.39 61.46 62.86 62.77 64.00
53.96 52.76 52.13 48.94 47.01 49.79 53.08 53.01 54.27 44.70 40.22 51.28 53.99 52.86 50.62 49.92 51.56 53.35 52.39 52.39 52.23 47.82 46.19 46.17 49.91 47.94 47.35 49.90 48.81 49.53 46.93 44.50 43.12 40.93 36.95 41.26 41.65 42.04 45.76 53.46 58.58 61.83 63.05 63.44 63.88
52.24 51.22 50.03 52.90 52.12 54.67 53.76 51.44 43.19 39.09 52.40 50.27 49.23 50.48 48.53 48.96 50.41 50.69 49.20 47.11 44.65 39.79 40.30 45.97 48.16 49.57 50.72 46.16 47.77 45.66 39.67 34.55 34.83 34.63 35.46 38.65 39.60 44.07 47.74 53.25 59.99 61.27 62.70 63.73 64.31
50.61 49.90 49.83 52.15 51.38 53.89 51.49 46.78 38.44 49.31 50.10 52.24 51.73 49.50 47.60 49.43 49.43 50.34 47.62 45.29 47.70 45.18 41.33 40.90 41.42 48.10 51.06 47.74 44.99 43.45 40.59 35.63 31.41 32.14 37.35 41.20 38.80 44.99 49.91 53.06 59.77 62.60 63.27 64.48 64.15
50.22 49.43 49.36 53.14 53.56 53.04 49.05 40.26 43.16 48.23 52.08 50.77 50.22 46.45 45.69 48.41 48.31 47.82 46.82 47.82 49.11 47.63 43.17 40.17 43.05 50.94 52.34 51.69 49.39 43.56 40.47 43.15 37.85 35.75 35.11 38.61 44.43 49.39 52.50 52.48 55.62 58.53 59.49 62.02 62.59
46.18 49.18 52.57 58.58 55.44 51.26 46.13 41.43 45.90 52.59 53.06 50.94 44.66 47.13 43.72 46.96 45.95 45.18 45.15 50.05 50.15 51.67 48.61 45.25 41.34 47.79 52.06 50.53 48.73 46.89 47.10 40.13 37.18 33.52 32.45 38.80 41.37 43.64 47.63 48.69 51.11 51.98 52.54 59.15 62.43
48.63 50.51 56.30 56.72 54.38 48.80 42.00 43.40 49.71 53.72 53.80 49.83 47.47 46.11 46.89 46.21 46.21 45.52 46.40 50.85 53.06 52.87 51.69 46.23 43.83 47.80 49.82 46.10 45.29 44.62 42.61 42.54 41.11 38.73 35.53 34.24 40.62 48.87 48.93 50.54 50.83 51.57 53.30 53.98 58.96
45.93 48.55 56.90 55.91 47.18 44.92 42.64 47.31 50.82 52.85 55.58 52.73 51.17 48.95 47.30 48.14 45.56 46.22 47.52 50.22 55.14 53.24 47.74 48.34 44.21 42.51 45.77 50.21 50.67 46.87 45.89 42.55 38.99 38.02 37.54 37.58 40.46 51.55 51.70 52.61 51.97 51.65 55.45 58.07 59.39
42.79 46.36 56.16 54.60 43.50 43.71 47.66 50.88 52.85 51.81 52.59 52.45 50.84 51.21 50.59 46.94 44.82 48.77 50.69 54.87 55.73 52.73 48.54 48.11 42.52 38.75 42.88 44.86 47.89 45.75 45.80 44.36 42.10 40.15 39.56 38.72 42.03 53.67 52.27 52.29 53.76 54.63 55.91 57.83 58.65
45.23 46.62 48.76 51.18 48.41 44.93 44.70 47.06 48.61 54.84 52.70 52.27 51.44 51.51 49.00 46.29 46.82 46.69 49.87 54.36 56.19 55.05 61.17 53.64 42.46 42.40 43.20 43.91 45.82 45.48 47.97 47.96 45.49 38.35 40.09 42.20 43.88 50.00 51.42 52.47 53.46 55.73 56.29 56.28 57.51
47.30 44.20 45.73 41.71 44.67 45.44 44.70 46.87 48.77 47.99 51.48 51.82 50.61 50.26 48.24 44.15 46.42 46.52 49.51 50.30 53.44 56.13 52.96 47.40 42.29 43.64 44.83 48.03 48.17 47.69 48.22 49.69 44.92 44.40 42.88 46.24 46.45 48.99 50.39 52.66 53.95 55.10 57.31 57.95 57.76
44.97 43.52 44.74 43.02 44.80 45.54 44.65 45.17 47.56 48.93 49.66 47.57 46.62 49.57 49.44 44.97 45.70 44.78 46.79 46.52 46.80 50.04 48.24 48.01 43.84 44.32 44.19 49.23 49.50 47.54 49.36 49.51 49.52 49.28 47.83 48.04 47.32 51.61 53.14 52.43 58.23 58.26 59.15 58.61 60.18
47.75 48.93 45.28 43.19 43.95 43.23 43.89 46.76 48.73 48.81 49.53 50.58 49.82 47.60 46.26 48.26 49.14 48.29 48.14 47.93 48.00 46.50 46.29 44.76 44.15 43.92 41.03 47.55 47.99 43.26 46.54 48.89 49.54 51.69 50.15 44.43 48.21 54.71 58.28 59.79 59.47 59.57 61.14 61.97 63.02
MSLP
1019.17 1018.85 1018.57 1018.35 1018.12 1017.83 1017.49 1017.16 1016.85 1016.60 1016.38 1016.15 1015.89 1015.54 1015.12 1014.72 1013.89 1013.70 1012.71 1010.38 1010.16 1009.84 1010.06 1010.05 1010.21 1010.44 1010.67 1010.55 1010.56 1011.48 1012.39 1012.51 1012.21 1011.91 1010.70 1009.47 1009.04 1008.76 1009.08 1009.19 1009.63 1009.87 1010.86 1012.10 1013.16
1019.19 1018.93 1018.63 1018.32 1018.06 1017.78 1017.44 1017.14 1016.79 1016.55 1016.30 1016.05 1015.84 1015.51 1015.07 1014.74 1014.11 1012.47 1009.69 1009.44 1009.56 1009.73 1010.00 1009.94 1009.73 1010.08 1010.23 1009.89 1009.79 1010.35 1011.28 1010.52 1010.15 1010.00 1009.82 1009.07 1008.91 1009.02 1009.35 1009.43 1010.80 1011.02 1011.81 1012.44 1013.19
1019.16 1018.89 1018.60 1018.26 1017.91 1017.67 1017.37 1017.04 1016.67 1016.40 1016.19 1015.97 1015.71 1015.43 1015.06 1014.72 1013.71 1009.99 1008.11 1008.54 1009.26 1009.55 1009.58 1009.79 1009.64 1009.99 1009.67 1008.80 1008.61 1009.03 1009.29 1009.40 1009.03 1008.92 1008.87 1009.30 1008.49 1008.68 1008.96 1009.71 1010.38 1011.15 1012.15 1012.59 1013.31
1019.13 1018.78 1018.47 1018.14 1017.81 1017.46 1017.18 1016.90 1016.61 1016.35 1016.11 1015.89 1015.63 1015.34 1014.99 1014.68 1012.25 1008.40 1007.86 1008.15 1009.07 1009.50 1009.70 1009.52 1009.57 1009.77 1009.39 1008.90 1007.52 1007.94 1007.62 1007.80 1007.48 1008.25 1008.44 1008.35 1008.03 1008.36 1008.50 1008.62 1009.55 1010.75 1011.56 1012.21 1012.96
1019.05 1018.67 1018.27 1017.91 1017.60 1017.27 1016.94 1016.68 1016.45 1016.23 1016.05 1015.80 1015.51 1015.20 1014.83 1013.98 1010.88 1007.95 1008.04 1008.47 1009.19 1009.53 1009.62 1009.69 1009.66 1009.60 1009.34 1008.32 1007.77 1007.18 1007.25 1007.15 1006.90 1007.11 1007.38 1007.45 1007.63 1007.92 1008.17 1008.61 1009.65 1010.69 1011.43 1012.01 1012.60
1018.94 1018.52 1018.11 1017.69 1017.32 1016.96 1016.64 1016.42 1016.21 1015.99 1015.83 1015.64 1015.38 1015.24 1014.81 1012.53 1008.18 1007.94 1008.30 1008.88 1009.02 1009.35 1009.38 1009.48 1009.30 1009.30 1009.04 1008.37 1007.83 1007.27 1007.12 1006.95 1006.79 1007.00 1007.20 1007.35 1007.54 1007.51 1008.16 1008.37 1009.52 1010.33 1011.01 1011.66 1012.06
1018.82 1018.37 1017.91 1017.49 1017.08 1016.69 1016.35 1016.14 1015.90 1015.69 1015.50 1015.36 1015.21 1014.99 1014.09 1010.12 1008.05 1008.13 1008.34 1008.56 1008.76 1009.00 1009.19 1008.83 1009.22 1009.88 1009.13 1008.41 1007.39 1007.24 1007.73 1007.39 1007.09 1007.13 1007.27 1007.51 1007.87 1007.74 1007.92 1008.39 1009.13 1009.86 1010.47 1011.29 1011.59
1018.72 1018.22 1017.75 1017.28 1016.80 1016.39 1016.00 1015.70 1015.49 1015.25 1015.11 1015.04 1014.84 1014.71 1012.43 1008.34 1008.27 1008.46 1008.56 1008.60 1008.65 1008.77 1008.71 1008.60 1008.95 1009.35 1009.24 1008.24 1007.76 1008.27 1008.11 1007.94 1007.47 1007.41 1007.44 1007.71 1007.78 1007.80 1007.78 1008.36 1009.22 1009.63 1010.23 1010.72 1011.15
1018.54 1018.07 1017.58 1017.06 1016.59 1016.16 1015.61 1015.05 1014.78 1014.67 1014.71 1014.66 1014.82 1014.16 1011.09 1007.76 1007.81 1007.20 1007.76 1008.13 1008.42 1008.71 1008.61 1008.51 1008.99 1009.31 1008.88 1009.40 1009.67 1009.13 1008.66 1008.43 1007.69 1007.07 1007.41 1007.83 1007.61 1006.98 1007.26 1007.89 1008.57 1009.25 1009.82 1010.25 1010.79
1018.30 1017.76 1017.28 1016.86 1016.42 1015.94 1015.26 1014.42 1014.14 1014.27 1014.48 1014.33 1013.75 1013.52 1009.88 1007.48 1006.53 1006.54 1007.12 1007.65 1008.31 1008.63 1009.05 1009.05 1009.58 1009.82 1010.08 1010.49 1010.54 1009.41 1009.07 1008.20 1007.16 1006.74 1007.19 1007.61 1007.45 1007.06 1007.17 1007.47 1007.96 1008.63 1009.22 1009.76 1010.11
1018.00 1017.43 1016.95 1016.58 1016.22 1015.89 1015.18 1014.27 1014.27 1014.01 1013.47 1011.73 1010.81 1009.83 1007.99 1006.82 1006.07 1006.47 1006.53 1007.31 1008.07 1008.85 1009.58 1009.50 1010.33 1010.47 1010.22 1010.16 1009.72 1009.54 1009.08 1008.42 1007.08 1006.14 1006.56 1006.92 1007.07 1006.78 1006.52 1007.16 1007.67 1008.12 1008.67 1009.12 1009.46
1017.67 1017.05 1016.55 1016.20 1015.97 1015.79 1015.90 1014.51 1011.72 1010.90 1010.89 1009.62 1008.98 1008.49 1007.19 1007.05 1006.96 1006.23 1006.40 1007.50 1008.11 1009.04 1009.60 1010.32 1010.23 1009.65 1009.65 1009.68 1009.63 1009.21 1008.72 1007.53 1006.05 1005.75 1006.43 1006.61 1006.57 1006.24 1006.19 1005.98 1006.47 1007.23 1007.78 1008.25 1009.09
1017.31 1016.64 1016.16 1015.79 1015.49 1015.55 1014.74 1012.34 1009.88 1010.13 1010.25 1008.00 1007.46 1007.50 1006.75 1006.43 1006.35 1005.94 1006.29 1007.03 1007.82 1008.82 1009.49 1010.00 1008.91 1008.78 1009.34 1008.94 1009.10 1008.35 1008.00 1007.02 1006.54 1005.71 1005.98 1006.27 1006.54 1006.13 1005.89 1005.69 1005.92 1006.11 1006.51 1007.45 1007.85
1016.87 1016.29 1015.82 1015.29 1015.37 1014.37 1012.98 1009.74 1009.96 1010.45 1010.33 1007.63 1006.59 1005.40 1005.58 1005.78 1005.56 1005.02 1005.54 1006.70 1007.69 1008.39 1009.03 1009.42 1008.17 1008.52 1008.50 1008.48 1008.03 1007.94 1006.45 1006.58 1006.59 1006.74 1006.88 1006.70 1006.54 1006.17 1005.49 1005.39 1005.18 1005.45 1005.94 1006.48 1007.06
1016.38 1015.87 1015.60 1015.58 1015.39 1013.79 1010.35 1009.83 1009.95 1010.20 1009.46 1006.10 1005.54 1004.01 1004.39 1005.34 1005.06 1004.88 1005.12 1006.14 1007.15 1007.87 1008.68 1007.99 1007.53 1007.52 1007.55 1006.97 1006.77 1006.87 1006.32 1006.68 1006.89 1007.25 1007.74 1007.47 1007.63 1005.23 1005.05 1004.81 1004.36 1004.50 1004.89 1005.42 1005.88
1015.67 1015.30 1015.14 1015.19 1015.15 1011.68 1010.39 1009.91 1009.58 1010.31 1007.72 1005.45 1004.43 1004.48 1005.03 1005.35 1005.11 1005.05 1005.52 1005.95 1006.45 1007.56 1007.94 1007.71 1006.69 1006.68 1005.86 1005.36 1005.38 1005.38 1006.26 1007.29 1008.11 1008.79 1009.33 1007.71 1008.00 1005.58 1005.03 1003.39 1003.28 1003.28 1003.86 1004.38 1005.08
1014.53 1014.44 1014.63 1013.78 1012.15 1010.65 1010.15 1010.41 1010.85 1009.85 1006.44 1005.25 1004.60 1004.56 1005.03 1005.39 1005.36 1005.54 1006.07 1006.57 1007.06 1007.95 1008.26 1007.43 1006.36 1005.47 1005.20 1005.18 1005.03 1005.64 1007.55 1008.99 1010.17 1010.65 1009.89 1008.40 1008.01 1005.16 1002.95 1001.97 1001.65 1002.05 1002.64 1003.38 1004.19
1013.62 1012.74 1012.63 1011.91 1010.79 1011.01 1010.84 1011.51 1010.80 1008.34 1006.44 1004.97 1004.35 1004.78 1005.09 1005.07 1005.02 1005.16 1005.79 1006.65 1006.94 1007.26 1008.07 1007.90 1006.25 1004.65 1004.27 1004.42 1005.08 1005.88 1007.55 1009.10 1010.51 1011.37 1009.86 1008.27 1006.83 1003.55 1001.54 1000.52 1000.81 1001.07 1001.49 1002.35 1003.37
1013.00 1012.35 1012.35 1010.04 1010.47 1011.34 1011.71 1011.79 1009.96 1007.85 1006.42 1005.66 1004.91 1005.28 1005.56 1005.24 1005.27 1005.47 1005.61 1005.69 1005.72 1006.31 1007.28 1007.00 1005.86 1004.25 1003.74 1003.51 1004.03 1005.45 1006.90 1007.71 1009.64 1010.72 1010.63 1008.13 1005.71 1002.74 1001.00 1000.89 1000.98 1000.95 1001.56 1001.88 1002.46
1013.79 1012.65 1010.77 1008.81 1009.91 1010.94 1011.79 1011.52 1009.46 1007.36 1006.33 1005.21 1005.20 1005.24 1005.77 1005.52 1005.30 1005.39 1005.23 1004.37 1004.54 1004.56 1005.03 1005.72 1005.76 1003.89 1002.98 1002.66 1003.51 1004.23 1005.44 1007.68 1009.57 1010.52 1010.42 1008.39 1006.18 1003.53 1001.71 1001.03 1000.71 1001.03 1001.12 1001.41 1001.99
1013.64 1012.44 1009.10 1008.67 1009.64 1011.23 1011.87 1010.80 1008.75 1006.90 1006.50 1005.84 1004.95 1005.07 1005.21 1005.34 1005.09 1005.12 1004.59 1003.85 1003.82 1003.82 1004.14 1004.94 1005.58 1003.91 1003.59 1003.47 1003.83 1004.45 1005.34 1006.91 1008.38 1009.42 1009.69 1008.79 1006.35 1003.24 1002.22 1001.11 1000.49 1000.54 1000.49 1000.78 1001.62
1014.95 1012.87 1009.24 1008.97 1010.67 1011.36 1011.44 1009.90 1008.36 1006.95 1005.58 1005.31 1004.53 1004.56 1005.01 1005.46 1005.38 1004.99 1004.57 1004.05 1003.22 1003.11 1003.84 1003.96 1004.74 1005.04 1003.99 1002.87 1002.92 1003.51 1004.37 1005.78 1007.92 1008.78 1008.77 1007.88 1005.55 1003.23 1002.09 1001.56 1001.13 1001.02 1000.73 1000.92 1001.54
1016.61 1013.89 1009.56 1009.47 1011.13 1011.97 1011.00 1009.82 1008.51 1007.26 1006.30 1005.71 1004.97 1004.76 1004.97 1005.53 1005.88 1005.41 1004.72 1004.14 1003.84 1003.32 1003.35 1003.97 1004.66 1005.13 1004.62 1003.73 1003.30 1003.55 1004.09 1005.00 1006.03 1007.07 1007.44 1007.37 1005.09 1003.01 1002.01 1001.72 1000.98 1001.04 1001.16 1001.23 1001.67
1016.85 1014.89 1012.33 1011.54 1012.14 1012.45 1011.98 1010.33 1008.85 1007.37 1006.58 1006.22 1005.93 1005.25 1005.36 1005.76 1005.91 1005.84 1005.73 1005.10 1004.67 1004.33 1003.87 1003.74 1004.63 1004.92 1004.67 1004.05 1003.88 1003.77 1003.74 1004.24 1005.22 1006.47 1006.40 1005.89 1004.48 1003.25 1002.10 1001.52 1001.41 1001.26 1001.54 1001.56 1001.94
1016.85 1016.48 1015.58 1014.73 1013.61 1013.41 1012.52 1011.02 1009.57 1008.18 1007.35 1007.20 1006.91 1007.34 1007.15 1006.98 1006.95 1006.99 1006.77 1006.32 1005.41 1005.36 1005.27 1005.26 1005.57 1005.23 1004.80 1004.27 1003.88 1003.75 1003.70 1003.71 1004.35 1005.01 1005.07 1005.06 1004.45 1003.26 1002.30 1001.55 1001.37 1001.39 1001.54 1002.15 1002.36
1017.64 1017.50 1016.60 1016.01 1014.90 1014.06 1012.91 1011.92 1010.80 1009.42 1008.67 1008.66 1008.74 1008.36 1008.22 1008.45 1008.46 1008.31 1007.95 1007.63 1007.34 1006.61 1006.79 1006.59 1006.70 1006.28 1005.40 1004.64 1004.07 1003.72 1003.51 1003.40 1003.58 1004.14 1004.37 1004.74 1004.35 1003.34 1002.43 1002.02 1002.30 1002.26 1002.29 1002.23 1002.53
1018.54 1017.82 1017.59 1016.59 1015.73 1014.84 1013.94 1012.70 1011.65 1010.93 1009.64 1009.29 1009.03 1008.78 1008.60 1008.53 1008.31 1008.22 1008.30 1008.21 1008.11 1008.27 1008.08 1007.99 1007.87 1007.84 1007.08 1005.65 1004.76 1004.14 1003.36 1003.05 1003.10 1003.58 1004.11 1005.07 1005.13 1004.18 1003.63 1003.71 1003.90 1003.56 1003.23 1003.14 1003.11
Wind_Speed
11 12 12 12 11 12 12 13 13 13 13 14 14 14 14 15 16 3 7 10 7 6 3 4 4 3 2 5 7 4 4 4 5 6 6 4 3 15 8 8 4 3 8 20 16
12 11 11 12 12 12 13 13 13 13 13 14 13 14 14 14 3 8 10 11 8 12 3 4 6 4 3 6 4 5 4 8 9 6 4 2 2 6 4 7 9 17 19 18 16
12 12 12 12 13 12 13 13 13 14 14 14 13 13 13 10 4 10 11 20 11 10 3 2 5 2 4 4 7 7 3 3 9 12 8 6 3 5 6 2 9 22 20 18 17
13 13 13 13 13 14 14 13 13 13 14 13 13 12 12 2 2 3 8 16 13 7 2 3 3 2 3 5 6 7 7 12 6 12 6 8 6 6 6 4 19 21 21 18 16
14 14 14 14 14 14 14 13 13 13 13 13 11 10 3 2 11 4 9 13 8 5 4 3 3 0 4 6 8 4 8 4 5 4 2 6 4 5 6 12 22 20 20 18 15
15 15 15 15 16 15 15 14 14 14 13 10 8 6 0 3 6 7 9 7 6 6 4 6 6 2 8 6 2 4 4 5 2 6 4 3 2 2 2 17 21 22 19 16 17
16 16 16 16 17 17 16 15 15 14 12 8 6 3 1 16 3 7 9 9 6 6 5 6 1 1 8 12 4 9 3 2 3 3 2 3 3 4 7 13 17 22 18 17 16
17 17 17 17 18 18 17 16 16 14 9 6 4 2 9 6 5 4 5 1 5 6 7 6 3 5 5 5 10 4 2 2 3 2 3 5 10 5 8 12 16 18 17 17 16
16 17 17 18 18 16 17 19 17 11 5 3 3 2 12 11 6 10 12 7 6 5 6 10 2 4 8 4 6 5 4 4 6 10 4 6 8 7 10 9 11 18 17 16 14
17 17 17 16 16 16 19 19 5 3 3 5 6 3 6 5 4 5 9 8 5 3 5 2 4 2 5 6 6 6 2 7 7 6 8 7 15 7 9 9 11 16 15 16 17
18 18 17 15 14 12 10 3 4 2 2 11 9 6 5 5 3 5 7 7 3 5 5 4 2 7 12 9 9 7 10 8 10 8 6 13 13 12 10 9 8 10 15 17 18
19 19 18 15 12 9 3 2 8 5 8 17 15 10 9 4 5 6 7 7 7 6 4 3 8 13 10 8 8 11 13 15 6 1 8 8 12 7 9 17 16 14 16 17 15
19 19 18 16 14 2 4 10 2 9 3 8 9 7 8 8 8 9 12 6 4 5 5 9 14 9 9 13 11 14 7 5 7 2 3 2 7 3 7 7 12 15 19 15 21
20 19 17 19 2 2 6 7 4 5 5 8 4 8 5 7 5 8 11 8 4 11 8 8 17 14 8 11 8 8 12 6 7 4 5 3 11 6 4 14 16 15 17 17 19
21 18 13 6 5 3 6 8 4 5 4 5 4 2 7 9 1 3 8 5 11 9 7 11 3 8 10 18 9 14 9 2 3 1 4 3 2 13 5 6 16 18 19 19 21
22 18 11 3 2 11 10 9 5 7 6 2 6 7 6 4 4 5 4 4 6 5 4 10 6 6 10 11 8 5 2 9 6 4 4 5 6 10 4 11 15 18 16 21 21
27 16 4 2 6 4 6 6 6 3 7 3 5 7 6 7 6 7 8 8 7 3 6 8 12 7 6 5 2 6 8 4 5 5 8 3 1 13 9 8 20 22 18 17 21
29 22 10 6 3 6 5 6 2 6 6 6 6 7 7 7 8 9 10 8 6 4 3 2 12 5 4 9 10 5 10 8 6 4 8 3 6 10 12 14 13 18 20 17 21
25 1 2 6 7 3 7 3 7 5 4 6 6 4 3 3 2 4 9 15 12 12 10 7 9 3 7 10 14 4 3 9 5 1 4 5 10 10 8 7 6 10 9 15 16
4 4 4 2 9 5 6 5 5 4 7 8 3 2 2 5 1 6 6 10 10 16 8 7 6 5 6 6 5 10 5 3 3 2 5 7 7 7 2 4 6 9 11 13 13
2 5 5 9 5 6 3 7 6 9 4 6 4 3 4 4 2 2 7 8 8 11 18 7 5 16 3 5 8 1 2 4 7 6 5 1 9 6 5 6 6 2 5 10 13
4 2 3 5 4 1 2 5 5 13 20 10 6 3 2 2 3 3 3 4 9 7 10 13 8 9 13 7 7 6 12 8 7 7 3 5 9 6 9 6 5 3 2 5 9
3 4 5 5 1 3 7 8 7 5 7 8 4 3 3 1 4 2 3 7 11 3 2 3 5 1 10 7 6 3 3 1 4 4 6 6 8 5 4 4 6 5 6 7 7
2 5 6 6 1 4 6 7 8 6 5 6 5 6 4 3 4 4 7 7 11 12 12 3 4 7 13 10 5 2 5 1 5 4 5 7 5 6 3 2 4 7 3 4 8
3 2 1 5 5 7 2 4 10 7 6 10 8 11 6 5 7 7 4 6 8 9 12 6 3 5 5 5 2 5 3 6 4 4 3 8 6 7 8 9 8 7 9 7 5
3 4 5 4 5 6 6 6 9 9 5 5 5 9 12 6 3 5 5 4 4 11 10 7 4 7 3 2 5 3 5 4 3 3 2 4 3 5 9 3 6 2 5 5 5
4 4 4 5 5 4 4 8 9 8 4 4 2 4 3 2 2 5 4 5 7 3 4 3 3 6 6 7 6 6 4 7 4 2 3 3 2 5 7 9 6 7 7 7 6
Wind_Direction
358 353 349 344 341 338 333 329 327 328 329 330 334 334 329 327 312 155 238 221 193 203 190 283 206 238 253 244 162 145 73 175 217 195 237 246 75 63 58 69 52 165 118 139 128
354 349 344 339 335 332 330 327 325 326 327 329 333 332 328 334 301 256 224 229 216 153 223 264 292 340 252 234 183 151 160 216 184 188 223 276 261 136 115 113 73 96 111 132 129
349 346 341 336 332 329 326 325 323 324 327 329 329 328 326 326 330 250 201 207 175 170 246 330 283 333 267 246 190 157 248 227 188 192 223 210 187 168 150 104 157 140 145 147 143
346 342 337 333 329 326 324 322 321 322 324 326 325 323 320 303 223 281 337 194 157 163 269 310 304 233 294 311 284 128 183 230 160 192 187 232 174 161 199 228 149 149 159 157 164
343 338 334 331 327 324 322 321 320 319 320 322 322 328 347 23 252 243 91 131 129 162 210 229 288 360 270 297 324 110 182 168 116 33 241 110 162 188 196 123 143 155 162 165 170
340 336 333 329 327 324 321 318 315 313 315 313 314 324 235 278 241 145 126 127 156 169 210 200 218 171 270 272 329 322 257 119 2 72 144 143 259 85 296 135 150 163 171 173 176
338 335 332 328 325 322 318 313 309 308 306 305 295 257 255 234 12 136 153 177 170 174 214 225 65 91 319 304 332 333 265 69 281 72 176 123 295 215 151 154 157 170 171 175 181
335 333 330 327 324 320 314 306 303 299 290 282 244 225 248 247 224 262 214 200 182 201 222 277 249 272 196 265 351 340 94 162 269 159 260 104 265 211 185 163 172 174 174 176 184
331 329 326 324 321 318 312 304 299 284 248 174 123 171 266 303 169 217 170 195 162 222 255 269 334 239 349 49 359 344 267 220 277 192 130 172 258 236 183 162 180 179 177 180 182
329 325 323 322 321 325 315 302 280 301 200 194 255 340 274 236 200 187 177 184 163 183 349 254 52 41 357 74 230 240 306 295 219 196 183 187 251 273 194 171 196 174 180 181 183
328 324 321 321 318 325 345 3 29 7 244 198 194 236 270 227 114 182 208 130 141 93 174 277 80 231 240 228 251 281 275 263 267 225 142 214 235 229 178 192 200 171 187 184 188
325 322 320 319 316 319 303 204 219 158 289 226 234 249 277 66 325 227 122 155 138 180 159 359 235 226 240 256 261 270 276 284 289 196 150 235 248 217 187 202 192 182 191 190 186
323 321 321 318 318 273 214 230 262 26 320 285 194 204 234 141 208 215 145 171 140 160 192 181 237 213 225 265 263 266 217 253 247 299 215 227 286 244 227 226 197 189 192 183 187
322 321 322 323 305 299 247 247 236 153 41 277 180 250 187 180 266 185 173 143 179 193 209 214 244 239 229 241 231 267 266 274 287 49 260 91 282 282 242 221 199 192 189 185 191
322 320 318 330 305 231 235 359 106 61 358 165 181 161 165 163 226 318 161 91 197 229 125 242 261 212 225 232 209 236 240 242 284 224 41 297 6 274 174 216 205 197 192 191 194
321 319 317 125 211 245 312 304 64 47 269 226 150 168 117 224 247 51 129 87 190 212 229 239 250 198 226 254 208 229 155 32 42 48 354 280 159 285 200 215 202 208 191 192 193
320 313 229 250 222 344 298 41 53 145 314 222 188 150 155 189 239 152 175 190 181 131 289 316 279 267 198 263 289 82 60 356 352 2 228 120 134 236 250 221 193 197 204 186 189
322 315 201 222 243 356 40 54 133 244 257 307 171 147 181 178 238 185 146 190 253 159 118 204 317 174 211 190 185 175 148 154 199 207 261 123 244 254 224 242 208 191 199 188 184
318 8 165 249 197 112 72 85 212 234 334 7 13 66 298 285 289 145 188 199 202 175 176 175 258 218 277 243 158 218 145 189 161 122 20 269 298 312 80 109 178 201 182 197 180
334 332 260 162 137 75 76 235 252 274 334 335 101 111 144 322 238 164 189 210 222 195 161 226 301 244 282 62 358 148 172 109 13 207 282 302 289 243 197 165 158 174 200 207 180
15 17 266 116 85 55 168 231 278 273 316 326 292 239 225 207 233 217 231 288 199 253 192 162 141 269 129 163 188 338 276 67 119 140 175 271 284 227 218 195 164 86 168 183 160
346 29 297 94 59 191 192 219 298 301 307 265 210 199 10 328 279 248 248 240 331 295 161 205 174 221 239 228 177 171 200 145 127 261 236 159 266 294 255 13 66 28 140 123 148
359 275 308 100 88 318 300 291 274 312 317 350 291 137 151 58 356 304 342 312 354 314 214 149 211 204 319 346 7 172 173 119 97 66 212 140 265 307 17 52 14 59 168 163 143
29 8 330 33 90 39 356 301 323 311 288 1 302 345 26 337 173 281 351 348 330 8 341 63 131 179 220 206 148 83 340 32 124 127 235 221 226 274 129 32 344 64 119 178 152
45 341 259 328 329 328 237 274 304 316 345 23 26 7 352 1 6 13 353 323 331 19 353 56 248 177 202 242 175 179 220 298 122 262 110 294 220 249 231 209 181 167 148 165 182
60 30 346 287 297 330 5 328 341 338 26 2 47 355 32 64 33 316 353 14 267 331 344 356 336 348 281 260 309 269 224 280 268 199 341 230 271 282 273 292 51 17 94 111 122
323 335 105 278 329 17 348 316 355 354 342 18 355 350 3 146 293 262 244 236 241 202 314 323 43 17 299 342 1 332 216 201 218 130 193 14 270 309 58 65 32 43 63 80 89